This is the latest recevied weather packets stored in our database for station/object KK7ISX. If no packets are shown the sender has not sent any weather packets the latest 1 day(s).
| Time | Temp. | Humidity | Pressure | Rain* | Wind** | Luminosity | Snow |
|---|---|---|---|---|---|---|---|
| 1778036195 | 22.78° C | 34% | 1009 hPa | 0 mm | 0.89 m/s, 335° | 2 W/m² | - |
| 1778035891 | 22.78° C | 34% | 1008.9 hPa | 0 mm | 1.34 m/s, 328° | 4 W/m² | - |
| 1778035589 | 22.78° C | 33% | 1008.6 hPa | 0 mm | 1.34 m/s, 34° | 6 W/m² | - |
| 1778035284 | 22.78° C | 33% | 1008.6 hPa | 0 mm | 0.89 m/s, 327° | 9 W/m² | - |
| 1778034981 | 23.33° C | 33% | 1008.5 hPa | 0 mm | 0.89 m/s, 39° | 12 W/m² | - |
| 1778034678 | 23.33° C | 32% | 1008.5 hPa | 0 mm | 1.79 m/s, 9° | 15 W/m² | - |
| 1778034375 | 23.89° C | 31% | 1008.5 hPa | 0 mm | 0.45 m/s, 218° | 19 W/m² | - |
| 1778034073 | 23.89° C | 31% | 1008.5 hPa | 0 mm | 2.68 m/s, 33° | 23 W/m² | - |
| 1778033771 | 23.89° C | 31% | 1008.4 hPa | 0 mm | 2.24 m/s, 56° | 27 W/m² | - |
| 1778033468 | 23.89° C | 30% | 1008.3 hPa | 0 mm | 2.24 m/s, 31° | 31 W/m² | - |
| 1778033165 | 23.89° C | 31% | 1008.2 hPa | 0 mm | 0.45 m/s, 9° | 36 W/m² | - |
| 1778032862 | 24.44° C | 30% | 1008.1 hPa | 0 mm | 2.68 m/s, 43° | 41 W/m² | - |
| 1778032560 | 24.44° C | 30% | 1008.2 hPa | 0 mm | 4.02 m/s, 5° | 46 W/m² | - |
| 1778032256 | 24.44° C | 30% | 1008.1 hPa | 0 mm | 4.92 m/s, 12° | 56 W/m² | - |
| 1778031954 | 24.44° C | 30% | 1008.2 hPa | 0 mm | 2.68 m/s, 73° | 65 W/m² | - |
| 1778031649 | 25° C | 30% | 1008.1 hPa | 0 mm | 3.13 m/s, 90° | 72 W/m² | - |
| 1778031348 | 24.44° C | 30% | 1008.1 hPa | 0 mm | 2.24 m/s, 88° | 81 W/m² | - |
| 1778031044 | 24.44° C | 30% | 1007.9 hPa | 0 mm | 1.79 m/s, 9° | 90 W/m² | - |
| 1778030740 | 25° C | 30% | 1008 hPa | 0 mm | 1.79 m/s, 2° | 92 W/m² | - |
| 1778030437 | 25° C | 30% | 1008.1 hPa | 0 mm | 4.47 m/s, 352° | 106 W/m² | - |
| 1778030135 | 25° C | 30% | 1007.8 hPa | 0 mm | 2.68 m/s, 291° | 110 W/m² | - |
| 1778029831 | 25° C | 30% | 1008 hPa | 0 mm | 4.92 m/s, 34° | 120 W/m² | - |
| 1778029530 | 25° C | 30% | 1007.9 hPa | 0 mm | 3.13 m/s, 326° | 45 W/m² | - |
| 1778029226 | 25° C | 30% | 1007.8 hPa | 0 mm | 4.92 m/s, 5° | 145 W/m² | - |
| 1778028923 | 25° C | 29% | 1007.8 hPa | 0 mm | 3.13 m/s, 41° | 158 W/m² | - |
* Rain latest hour (hover to see other rain measurements)
** Current wind speed in m/s (hover to see current wind gust speed)